NKS387 KFLL-KTPA

Flight info

Callsign NKS387
Flight time N/A
Altitude 18000
Route BNICE2 COREA BLFRG3
Aircraft A321/M-SDE3FGHIRWY/LB1

Departure

Time 2026-05-04 02:46
Airport Fort Lauderdale Hollywood International Airport (KFLL)

Arrival

Time N/A
Airport Tampa International Airport (KTPA)
Time Latitude Longitude Altitude Speed Heading
2026-05-04 02:16 26.06934 -80.14606 16 ft 0 kts 90°
2026-05-04 02:36 26.06934 -80.14615 16 ft 4 kts 90°
2026-05-04 02:36 26.06934 -80.14645 16 ft 3 kts 90°
2026-05-04 02:37 26.06934 -80.14651 16 ft 0 kts 90°
2026-05-04 02:39 26.06934 -80.14650 16 ft 0 kts 91°
2026-05-04 02:39 26.06933 -80.14647 16 ft 0 kts 109°
2026-05-04 02:39 26.06930 -80.14646 16 ft 0 kts 130°
2026-05-04 02:40 26.06927 -80.14646 16 ft 1 kts 151°
2026-05-04 02:40 26.06909 -80.14637 16 ft 5 kts 159°
2026-05-04 02:40 26.06860 -80.14619 16 ft 10 kts 157°
2026-05-04 02:40 26.06785 -80.14597 15 ft 12 kts 219°
2026-05-04 02:41 26.06766 -80.14712 15 ft 19 kts 272°
2026-05-04 02:41 26.06766 -80.14857 15 ft 18 kts 269°
2026-05-04 02:41 26.06706 -80.14943 19 ft 13 kts 234°
2026-05-04 02:41 26.06697 -80.15036 19 ft 12 kts 271°
2026-05-04 02:42 26.06695 -80.15123 20 ft 11 kts 268°
2026-05-04 02:42 26.06696 -80.15230 21 ft 15 kts 271°
2026-05-04 02:42 26.06698 -80.15368 16 ft 19 kts 271°
2026-05-04 02:42 26.06697 -80.15511 16 ft 19 kts 271°
2026-05-04 02:43 26.06698 -80.15650 18 ft 18 kts 270°
2026-05-04 02:43 26.06695 -80.15787 17 ft 17 kts 255°
2026-05-04 02:43 26.06683 -80.15809 16 ft 2 kts 230°
2026-05-04 02:43 26.06657 -80.15822 17 ft 7 kts 188°
2026-05-04 02:44 26.06604 -80.15810 19 ft 7 kts 146°
2026-05-04 02:44 26.06591 -80.15770 19 ft 5 kts 92°
2026-05-04 02:44 26.06591 -80.15766 19 ft 0 kts 91°
2026-05-04 02:45 26.06591 -80.15761 19 ft 7 kts 91°
2026-05-04 02:45 26.06587 -80.15398 22 ft 87 kts 90°
2026-05-04 02:45 26.06582 -80.14470 47 ft 149 kts 90°
2026-05-04 02:45 26.06568 -80.13215 535 ft 167 kts 92°
2026-05-04 02:46 26.06537 -80.11881 1190 ft 175 kts 89°
2026-05-04 02:46 26.06767 -80.10533 1384 ft 190 kts 59°
2026-05-04 02:46 26.07574 -80.09255 1380 ft 214 kts 54°
2026-05-04 02:46 26.08483 -80.07836 1480 ft 233 kts 49°
2026-05-04 02:47 26.09831 -80.06803 1852 ft 241 kts 21°
2026-05-04 02:47 26.11454 -80.06153 2206 ft 255 kts 20°
2026-05-04 02:47 26.13147 -80.05474 2702 ft 263 kts 19°
2026-05-04 02:47 26.14905 -80.04876 3306 ft 267 kts
2026-05-04 02:48 26.16757 -80.05071 3914 ft 269 kts 341°
2026-05-04 02:48 26.18530 -80.05752 4568 ft 271 kts 339°
2026-05-04 02:48 26.20331 -80.06462 4920 ft 275 kts 338°
2026-05-04 02:48 26.21947 -80.07545 5002 ft 273 kts 315°
2026-05-04 02:49 26.23071 -80.09227 5047 ft 273 kts 292°
2026-05-04 02:49 26.23751 -80.11197 5677 ft 273 kts 290°
2026-05-04 02:49 26.24437 -80.13167 6332 ft 274 kts 290°
2026-05-04 02:49 26.25149 -80.15146 6969 ft 275 kts 290°
2026-05-04 02:50 26.25636 -80.17216 7560 ft 277 kts 278°